Current Weather Conditions: station 62146

sailwx.info

Wind from 220 at 21 knots

Wave height 2.4 meters (7 feet), 6 second period

Visibility: greater than 10.8 NM

Last reported at 2020-Jan-26 03:00 UTC.
Time now 2020-Jan-26 03:48 UTC

Location: N 57°12' E 002°06'.
View on Google Maps.

See reports from other nearby stations

  
Tides and Currents Weather Stations Pressure Air Temp Water Temp Dewpoint Dewpoint Depression Visibility Wind Speed Wind Dir Waves Ship Positions
date/time (UTC)wind fromknots sea level pressurealtimeterstation pressurevisibilityair tempwater tempwave heightnotes
2020-Jan-26 03:00 220 21 10.8 2.4
2020-Jan-26 02:00 230 20 10.8 2.4
2020-Jan-26 01:00 230 20 10.8 2.3
2020-Jan-26 00:00 230 21 5.4 2.2
2020-Jan-25 23:00 230 20 10.8 2.3
2020-Jan-25 22:00 230 18 5.4
2020-Jan-25 21:00 240 17 10.8 7.5 2.3
2020-Jan-25 20:00
2020-Jan-25 19:00 240 22 10.8 7.4 2.5
2020-Jan-25 18:00 240 21 10.8 6.7 2.5
2020-Jan-25 17:00 240 20 10.8 6.6 2.6
2020-Jan-25 16:00 240 20 10.8 6.7 2.4
2020-Jan-25 15:00 230 21 10.8 6.7 2.5
2020-Jan-25 14:00 240 20 10.8 7.0 2.6
2020-Jan-25 13:00 240 22 10.8 7.1 2.4
2020-Jan-25 12:00 230 22 10.8 7.1 2.2
2020-Jan-25 11:00 240 20 10.8 7.2 1.9
2020-Jan-25 10:00 230 22 10.8 7.3 1.7
2020-Jan-25 09:00 220 20 10.8 6.9 1.7
2020-Jan-25 08:00 230 17 10.8 7.3 1.8
2020-Jan-25 07:00 220 15 10.8 7.4 1.8
2020-Jan-25 06:00 230 13 10.8 7.5 1.9
2020-Jan-25 05:00 240 13 10.8 7.4 1.8
2020-Jan-25 04:00 240 12 10.8 7.2 1.8
2020-Jan-25 03:00 230 13 10.8 6.8 2.0
2020-Jan-25 02:00 230 12 10.8 6.8 1.7
2020-Jan-25 01:00 230 12 27.0 6.9 1.9
2020-Jan-25 00:00 240 11 27.0 7.1 1.8
2020-Jan-24 23:00 250 9 27.0 7.0 1.9
2020-Jan-24 22:00 260 9 27.0 7.0 2.0
2020-Jan-24 21:00 280 9 27.0 7.0 2.0
2020-Jan-24 20:00 290 9 27.0 7.0 2.1
2020-Jan-24 19:00 300 11 27.0 7.0 2.1
2020-Jan-24 18:00 290 11 27.0 7.0 2.2
2020-Jan-24 17:00 300 13 10.8 7.0 2.3
2020-Jan-24 16:00 300 13 10.8 7.2 2.0
2020-Jan-24 15:00 310 14 10.8 7.3 2.2
2020-Jan-24 14:00 310 15 10.8 7.4 2.2
2020-Jan-24 13:00 290 12 10.8 7.5 2.0
2020-Jan-24 12:00 300 12 10.8 7.6 2.0
2020-Jan-24 11:00 300 13 10.8 7.6 1.7
2020-Jan-24 10:00 290 11 10.8 7.6 1.8
2020-Jan-24 09:00 300 9 10.8 7.6 1.6
2020-Jan-24 08:00 300 11 10.8 7.5 1.6
2020-Jan-24 07:00 320 13 1.1 7.0 1.6
2020-Jan-24 06:00 290 9 2.2 7.5 1.6
2020-Jan-24 05:00 290 12 5.4 7.4 1.7
2020-Jan-24 04:00 280 12 2.2 7.5 1.7
2020-Jan-24 03:00 280 13 2.2 7.5 1.7